Wind_Speed
10 11 11 10 10 9 9 9 9 10 10 9 9 9 9 8 8 8 7 7 7 7 6 7 8 7 5 4 9 8 10 11 10 9 10 10 8 8 8 10 15 22 22 24 28 28 28
11 11 10 10 9 8 8 8 9 10 9 9 9 9 8 7 7 6 7 7 7 6 5 6 7 7 6 8 12 13 15 15 13 12 11 11 11 11 12 12 14 15 17 23 21 23 23
11 10 10 9 9 9 9 10 10 9 9 8 8 6 6 6 6 7 7 6 7 7 8 10 10 8 6 9 14 15 15 15 14 13 11 11 13 13 14 17 11 15 18 14 14 19 16
10 10 10 10 10 11 12 12 11 9 7 7 7 6 7 7 7 8 9 10 10 9 9 11 9 8 4 10 19 20 16 14 15 15 13 10 12 14 16 13 8 8 15 18 13 21 22
12 11 11 11 12 12 11 12 12 11 9 9 9 9 8 8 9 10 11 10 10 9 11 10 7 10 6 19 20 18 19 19 15 11 8 10 13 7 4 14 21 14 13 20 28 27 28
12 11 11 11 11 12 12 12 11 11 11 11 11 11 10 10 11 11 11 13 12 10 14 12 14 9 14 22 23 18 18 17 15 11 10 8 13 18 17 14 7 17 22 22 21 24 27
14 13 12 10 11 12 12 13 13 13 12 12 11 11 11 10 11 11 12 13 14 12 16 13 10 14 21 22 21 17 22 19 10 1 12 6 9 16 13 10 13 15 18 23 21 25 23
16 13 12 10 10 11 12 13 13 13 12 11 11 11 12 12 12 13 14 14 15 12 12 13 7 19 24 25 20 25 26 25 21 18 17 9 6 11 16 17 15 17 16 18 25 24 25
18 14 12 11 11 11 11 11 11 11 11 11 11 12 13 13 13 14 15 15 13 10 6 13 17 23 27 23 16 24 34 25 22 22 20 9 9 12 15 22 22 18 14 22 27 31 29
18 14 12 10 10 10 10 11 11 11 11 12 12 12 12 12 13 15 15 16 11 6 4 8 15 19 23 21 14 16 22 30 26 22 21 7 13 21 27 19 18 19 18 23 26 27 24
19 15 12 11 11 10 11 10 11 12 12 13 13 13 14 15 16 17 16 14 9 4 3 12 15 18 15 20 15 21 19 23 26 16 14 16 21 26 20 9 13 16 23 28 27 32 37
20 16 13 11 10 10 10 10 11 12 13 13 14 15 16 14 15 16 15 11 8 3 3 3 9 20 15 19 17 22 24 22 22 22 14 26 10 22 20 21 25 32 34 33 25 23 18
22 18 14 12 11 10 10 11 11 12 12 13 14 15 15 16 15 16 14 11 2 7 11 10 18 16 12 21 19 25 21 24 28 30 40 40 37 17 26 43 43 40 29 11 6 4 4
21 19 16 13 11 10 11 11 12 12 12 14 15 15 16 16 16 16 13 7 8 3 9 11 14 9 13 24 17 24 19 18 19 21 24 21 37 37 51 33 30 29 23 11 6 5 8
18 19 18 16 13 12 12 13 14 14 14 14 14 15 17 16 14 15 10 8 5 6 11 13 9 8 11 21 15 19 14 18 17 23 20 22 24 45 29 33 25 17 17 16 15 20 10
16 17 17 17 16 15 14 15 15 15 15 15 15 15 15 15 14 13 8 11 5 8 7 8 8 8 14 20 20 17 16 15 21 28 31 21 32 25 36 32 36 25 16 10 4 3 3
16 16 16 15 15 16 16 17 17 16 16 16 16 15 14 13 12 10 11 10 5 8 10 10 8 10 10 19 14 12 16 13 21 34 29 29 26 27 36 31 32 46 30 13 5 12 5
16 16 16 16 15 15 17 18 19 18 15 14 14 12 13 12 8 10 13 10 6 9 9 8 6 10 10 14 14 10 12 18 27 26 29 28 18 26 32 12 21 29 29 15 6 12 12
16 16 17 17 15 15 16 19 22 19 15 13 11 10 12 14 9 14 13 11 7 11 9 11 6 11 14 11 7 8 14 16 22 25 25 26 23 26 29 24 28 27 28 15 17 13 21
15 17 19 18 16 16 17 20 22 21 15 12 11 9 9 12 12 11 7 8 11 12 11 11 5 13 14 10 8 8 14 12 19 22 24 21 20 18 14 16 16 22 31 27 20 18 19
15 18 18 19 17 17 18 20 23 20 13 11 9 8 9 9 8 10 8 6 10 10 7 11 7 15 12 10 16 10 17 13 13 20 26 19 17 20 11 16 16 23 29 26 27 17 18
14 18 18 19 18 18 18 20 23 18 14 14 10 9 8 7 8 10 9 8 11 11 8 11 14 17 11 15 18 18 15 9 10 21 25 19 19 16 3 3 21 24 25 16 20 20 20
14 17 18 18 18 17 18 20 22 15 14 12 11 10 8 7 7 9 6 10 11 11 8 13 15 19 17 18 11 11 12 10 8 16 20 24 21 20 6 8 4 20 20 18 17 20 21
13 16 18 18 18 17 18 20 22 15 12 12 12 11 10 7 6 7 5 12 12 11 10 14 16 20 19 16 13 13 8 7 6 12 14 19 18 12 8 7 3 10 15 18 8 15 19
13 15 17 17 18 17 18 18 21 14 12 12 11 11 11 9 7 9 7 11 10 9 11 16 17 20 19 14 17 9 4 3 9 5 13 14 18 21 6 12 10 13 18 16 18 9 18
13 14 17 17 17 17 17 17 19 13 10 12 11 11 10 10 7 8 8 13 13 9 8 12 19 18 16 14 11 7 3 9 5 7 12 20 14 13 14 5 2 12 15 18 15 5 23
13 14 16 17 16 16 16 16 17 12 11 12 11 11 11 10 8 7 10 11 13 9 10 14 17 13 15 12 7 5 6 7 6 13 19 16 14 11 13 5 4 11 15 16 13 15 21
13 14 15 15 16 15 15 15 16 12 10 12 13 13 12 12 8 7 12 14 13 8 11 15 14 15 14 11 5 5 7 7 9 16 16 9 11 5 7 4 3 13 14 10 11 15 21
13 14 15 15 15 15 15 15 17 13 10 11 13 14 13 11 13 4 12 14 10 9 11 15 16 15 13 11 10 8 12 9 12 8 12 10 14 8 5 12 17 7 4 9 14 17 21
Wind_Direction
30 31 32 33 33 31 24 15 7 6 9 11 10 8 4 8 11 18 23 28 40 44 40 15 358 354 332 321 10 350 346 341 332 323 319 310 292 272 263 242 242 240 251 253 258 261 261
41 38 35 32 27 19 8 359 356 358 1 5 4 2 4 11 21 35 44 52 42 33 19 358 354 344 344 9 348 349 348 339 328 322 312 302 294 285 285 273 255 266 257 259 270 280 285
30 25 19 14 7 1 357 353 347 343 344 354 8 14 24 39 52 63 56 45 26 17 8 359 349 338 337 352 349 342 343 333 327 318 312 301 299 294 290 297 281 260 279 298 305 315 309
26 19 12 5 358 355 355 355 351 345 352 13 41 49 52 59 56 44 28 21 14 8 3 356 350 350 306 339 348 343 337 335 327 322 314 307 299 294 283 283 304 295 290 294 262 285 279
18 11 8 5 3 6 15 25 30 39 45 47 55 66 56 44 37 26 14 9 5 8 3 3 342 349 7 345 339 339 337 343 336 322 325 346 335 333 323 316 290 268 319 306 289 295 314
10 7 7 12 14 21 24 28 36 44 50 55 49 47 44 36 22 14 5 359 1 3 1 355 16 359 346 346 340 353 347 347 342 350 17 337 307 311 291 289 315 311 315 312 307 310 302
16 15 15 22 27 28 33 42 50 55 53 46 41 34 29 23 17 8 5 4 347 358 345 355 10 5 351 351 340 350 349 352 356 356 327 354 281 276 263 299 305 300 299 298 293 290 311
21 24 27 35 38 39 46 49 52 52 49 40 30 22 18 13 10 9 5 359 360 343 333 360 358 358 355 354 344 341 355 360 4 357 345 354 17 312 312 316 315 300 304 308 284 285 314
26 30 38 42 42 46 48 48 46 43 39 34 26 20 16 15 13 8 2 1 355 348 351 11 355 357 353 354 356 349 346 360 1 343 350 314 319 309 338 324 307 296 317 319 310 305 302
30 37 42 47 48 49 47 41 35 31 28 25 23 20 18 14 8 6 3 0 359 10 79 17 338 354 354 6 9 342 358 346 347 350 354 358 283 310 318 320 307 315 320 312 308 311 298
31 37 42 45 43 43 39 31 26 24 24 21 16 13 10 9 5 3 360 359 1 28 72 338 342 348 7 358 334 351 359 334 330 17 350 333 324 333 321 330 319 321 321 317 303 294 292
29 34 39 42 37 35 32 27 23 21 19 12 7 6 8 1 358 1 358 3 18 89 51 293 329 352 1 340 348 344 10 331 320 332 324 327 315 329 330 315 319 317 315 310 308 299 272
28 29 33 33 29 24 20 19 16 15 10 5 3 3 359 358 360 358 359 4 40 51 332 308 334 19 341 343 349 357 10 351 7 350 338 334 336 342 318 318 298 326 330 310 298 269 231
25 26 25 23 20 12 9 5 6 6 2 2 359 357 349 356 354 357 359 333 72 19 332 331 358 10 4 344 1 2 360 14 359 356 345 333 326 331 328 333 318 313 303 278 279 294 312
19 22 22 19 10 4 0 355 354 353 351 352 353 350 338 353 353 359 352 44 59 351 340 353 28 5 354 335 1 5 9 8 6 356 355 321 312 329 341 339 339 328 314 296 287 280 251
9 14 17 16 12 5 360 354 349 346 342 342 343 348 352 352 358 356 13 77 33 10 9 22 12 355 350 337 3 11 10 341 345 343 336 324 317 342 343 353 12 351 340 346 270 250 123
4 3 6 9 9 8 5 359 352 344 340 340 345 346 354 356 5 4 57 86 41 12 8 13 355 357 345 346 356 5 348 323 318 330 333 339 333 329 340 340 345 353 6 351 305 37 10
1 359 358 1 359 358 0 1 356 350 345 345 347 353 359 1 357 39 62 59 48 5 5 13 345 1 334 356 358 1 350 347 332 335 354 354 341 331 332 1 14 356 5 30 19 25 64
357 356 355 353 352 353 354 357 358 356 352 350 1 5 7 9 31 39 40 47 38 5 10 8 5 354 335 8 344 323 320 337 340 341 1 350 344 338 352 15 4 39 20 58 68 73 39
355 354 350 348 346 347 348 352 356 357 359 2 9 13 11 19 37 32 24 30 9 7 357 14 11 318 341 2 309 283 304 344 334 355 359 359 1 3 341 335 12 42 37 47 76 59 75
352 351 349 347 347 347 350 353 358 2 10 20 20 28 28 21 38 34 32 31 1 6 8 340 308 330 353 324 327 249 318 339 339 6 1 5 358 357 36 62 51 64 47 49 55 59 57
345 348 347 346 346 349 351 355 360 8 16 22 20 27 30 28 22 19 16 13 359 353 348 332 342 343 334 316 323 324 340 347 343 351 356 7 348 359 106 73 52 38 31 47 52 47 41
334 343 345 345 345 348 351 355 2 12 22 20 30 27 16 16 27 6 11 357 355 356 342 331 342 344 337 333 333 331 336 350 329 342 348 354 348 345 354 56 64 28 24 24 53 36 26
324 335 341 344 344 346 349 354 1 10 17 23 23 18 16 16 13 4 357 353 349 351 338 337 338 345 344 335 328 349 317 329 309 315 325 346 344 339 326 350 46 44 22 15 22 43 23
318 328 337 340 340 343 346 352 0 6 11 15 14 12 7 359 354 359 340 349 348 331 330 334 347 346 341 344 353 358 24 311 318 283 313 356 337 337 335 343 158 25 7 4 331 16 13
314 320 331 336 335 339 341 347 356 359 4 6 5 3 1 356 349 337 329 345 341 335 332 311 336 335 333 356 341 336 317 332 324 311 300 332 355 359 3 348 76 7 348 353 335 279 7
308 313 325 329 329 333 334 340 348 351 356 356 354 354 352 353 338 332 333 337 336 329 333 335 336 333 343 354 340 321 299 321 305 321 325 332 343 4 348 349 195 15 330 339 30 339 339
301 307 317 323 322 324 327 331 340 340 342 345 346 347 346 342 335 322 337 334 333 331 339 340 338 336 352 348 345 316 291 306 300 313 334 336 321 347 336 323 305 329 330 5 1 338 335
294 303 313 315 316 319 322 325 333 334 335 335 341 341 339 338 331 294 336 331 327 330 333 332 336 345 333 336 328 313 300 297 306 307 337 360 339 316 300 300 325 318 298 327 345 332 336
Height
3142 3141 3140 3139 3137 3137 3136 3135 3133 3132 3131 3130 3128 3126 3125 3124 3122 3121 3119 3119 3118 3117 3116 3116 3115 3114 3113 3112 3111 3110 3108 3106 3105 3103 3102 3100 3098 3097 3097 3096 3096 3095 3096 3096 3095 3095 3095
3144 3142 3141 3140 3139 3138 3136 3134 3133 3131 3130 3128 3127 3125 3124 3123 3122 3121 3120 3119 3119 3118 3117 3115 3114 3112 3111 3110 3109 3108 3105 3104 3102 3101 3099 3098 3097 3095 3093 3093 3092 3092 3090 3090 3091 3093 3093
3145 3143 3142 3140 3139 3137 3135 3134 3132 3130 3129 3128 3127 3125 3124 3123 3122 3121 3120 3119 3118 3116 3115 3113 3111 3110 3109 3110 3107 3105 3104 3102 3100 3098 3097 3096 3094 3093 3090 3089 3088 3087 3086 3087 3087 3088 3086
3146 3144 3142 3140 3138 3136 3135 3133 3131 3129 3128 3127 3127 3126 3124 3124 3122 3121 3120 3118 3117 3115 3114 3112 3110 3108 3107 3107 3105 3102 3101 3099 3097 3095 3094 3093 3092 3091 3089 3087 3085 3085 3084 3081 3081 3079 3079
3147 3144 3142 3141 3139 3137 3135 3133 3131 3129 3128 3128 3127 3127 3125 3124 3123 3121 3119 3117 3115 3114 3112 3111 3110 3108 3107 3107 3105 3102 3099 3097 3095 3093 3090 3090 3089 3088 3087 3084 3083 3083 3078 3076 3072 3076 3072
3147 3144 3142 3141 3139 3137 3135 3133 3132 3130 3129 3128 3128 3127 3126 3124 3122 3120 3118 3116 3114 3113 3111 3110 3107 3109 3109 3105 3102 3100 3098 3095 3092 3088 3087 3087 3086 3085 3085 3081 3080 3077 3075 3073 3073 3073 3072
3147 3144 3142 3140 3139 3137 3136 3134 3133 3132 3131 3130 3128 3127 3125 3123 3122 3120 3118 3115 3116 3113 3110 3109 3109 3109 3106 3104 3100 3098 3094 3092 3090 3086 3084 3085 3084 3081 3079 3078 3077 3076 3074 3071 3068 3067 3068
3147 3145 3143 3141 3139 3138 3137 3136 3135 3133 3132 3131 3129 3127 3125 3123 3122 3120 3118 3116 3113 3113 3109 3109 3108 3107 3104 3101 3098 3094 3094 3090 3085 3084 3083 3083 3081 3079 3077 3075 3073 3071 3066 3063 3061 3063 3065
3148 3146 3144 3142 3141 3140 3139 3137 3136 3135 3133 3132 3130 3128 3125 3124 3122 3120 3118 3115 3112 3109 3109 3109 3107 3106 3103 3102 3098 3093 3090 3090 3086 3084 3083 3081 3082 3078 3076 3073 3068 3065 3064 3061 3060 3056 3056
3149 3147 3146 3144 3143 3142 3140 3139 3137 3136 3134 3132 3130 3128 3126 3124 3124 3120 3117 3114 3111 3109 3111 3114 3111 3108 3104 3102 3101 3097 3093 3088 3087 3085 3081 3081 3077 3076 3073 3073 3066 3061 3061 3059 3056 3056 3052
3151 3149 3147 3146 3144 3143 3141 3140 3138 3137 3135 3133 3131 3129 3127 3124 3122 3119 3117 3113 3111 3111 3115 3116 3112 3110 3108 3105 3104 3099 3095 3089 3085 3087 3084 3083 3078 3072 3068 3066 3062 3059 3056 3054 3051 3049 3045
3153 3150 3149 3147 3146 3144 3143 3141 3140 3138 3136 3134 3132 3129 3127 3125 3122 3119 3115 3113 3112 3114 3116 3117 3114 3110 3110 3105 3103 3099 3095 3088 3085 3084 3084 3080 3079 3075 3070 3061 3058 3053 3047 3045 3042 3043 3039
3155 3152 3150 3149 3147 3145 3144 3143 3141 3139 3137 3134 3132 3130 3127 3124 3121 3118 3115 3113 3114 3114 3119 3117 3113 3111 3110 3104 3102 3097 3095 3085 3083 3078 3072 3068 3068 3070 3067 3059 3045 3043 3044 3039 3037 3035 3033
3157 3155 3152 3150 3148 3147 3145 3143 3141 3139 3137 3135 3132 3129 3126 3123 3119 3117 3114 3114 3112 3118 3116 3116 3113 3112 3109 3103 3102 3098 3095 3093 3089 3086 3081 3072 3059 3064 3062 3059 3049 3043 3041 3038 3035 3032 3033
3160 3157 3154 3151 3149 3147 3145 3143 3141 3139 3136 3134 3131 3128 3125 3122 3119 3117 3116 3113 3118 3118 3117 3114 3112 3110 3110 3106 3104 3099 3098 3094 3091 3087 3086 3077 3066 3065 3060 3050 3046 3037 3034 3032 3031 3029 3030
3161 3159 3156 3153 3150 3148 3145 3143 3140 3138 3135 3132 3130 3127 3124 3120 3118 3116 3115 3115 3118 3118 3116 3114 3111 3111 3108 3104 3102 3100 3098 3095 3090 3088 3082 3077 3065 3063 3058 3049 3042 3040 3034 3028 3026 3020 3019
3161 3159 3157 3154 3151 3148 3145 3142 3139 3136 3133 3130 3128 3125 3123 3120 3118 3117 3115 3117 3118 3116 3115 3114 3111 3110 3108 3105 3103 3102 3099 3095 3089 3085 3080 3075 3071 3063 3057 3053 3046 3036 3032 3028 3027 3028 3026
3161 3159 3156 3154 3151 3148 3145 3142 3138 3135 3131 3129 3127 3125 3122 3120 3120 3116 3116 3117 3117 3116 3114 3113 3111 3109 3107 3105 3103 3103 3099 3095 3090 3085 3079 3075 3069 3062 3055 3051 3052 3048 3039 3033 3030 3038 3035
3161 3159 3156 3154 3151 3147 3145 3141 3137 3133 3130 3127 3126 3124 3121 3120 3117 3116 3116 3117 3117 3115 3113 3111 3110 3108 3106 3104 3104 3101 3097 3095 3090 3086 3082 3077 3071 3063 3051 3049 3047 3046 3043 3039 3038 3038 3042
3161 3158 3155 3153 3150 3146 3143 3140 3136 3132 3128 3127 3125 3123 3122 3120 3118 3118 3117 3118 3116 3114 3112 3110 3109 3106 3104 3102 3101 3098 3095 3094 3089 3086 3083 3077 3073 3071 3070 3068 3063 3056 3051 3047 3044 3044 3049
3160 3157 3154 3151 3148 3145 3142 3139 3135 3131 3128 3127 3125 3123 3122 3121 3120 3119 3118 3116 3115 3113 3112 3109 3108 3105 3102 3100 3097 3095 3093 3090 3088 3085 3082 3077 3074 3072 3069 3067 3063 3062 3058 3055 3050 3053 3052
3159 3156 3153 3150 3147 3144 3141 3137 3134 3130 3127 3126 3125 3123 3121 3120 3119 3118 3117 3116 3114 3112 3111 3109 3107 3104 3101 3098 3096 3092 3091 3088 3087 3084 3081 3078 3075 3073 3070 3067 3066 3063 3061 3059 3057 3057 3055
3157 3155 3152 3149 3146 3143 3140 3137 3133 3130 3127 3126 3125 3123 3122 3119 3118 3118 3117 3115 3113 3111 3110 3107 3105 3102 3099 3097 3094 3091 3089 3087 3085 3084 3081 3078 3075 3071 3068 3067 3065 3065 3063 3062 3060 3058 3056
3154 3153 3151 3148 3145 3142 3139 3136 3133 3130 3128 3126 3124 3123 3121 3119 3118 3117 3115 3114 3112 3110 3109 3107 3104 3101 3099 3094 3092 3088 3085 3084 3084 3084 3081 3078 3075 3071 3069 3067 3070 3070 3066 3063 3061 3059 3057
3152 3151 3149 3147 3144 3141 3138 3135 3132 3129 3127 3125 3124 3123 3120 3118 3117 3115 3114 3113 3110 3108 3107 3105 3102 3100 3096 3092 3088 3085 3084 3084 3084 3083 3079 3077 3075 3071 3068 3066 3068 3066 3064 3063 3060 3058 3056
3150 3149 3147 3145 3142 3139 3137 3134 3132 3129 3127 3125 3123 3122 3120 3119 3117 3115 3113 3111 3110 3107 3106 3103 3100 3098 3096 3090 3089 3087 3086 3083 3082 3080 3078 3075 3074 3073 3069 3066 3068 3067 3063 3060 3057 3056 3054
3147 3146 3144 3142 3139 3137 3135 3133 3130 3128 3126 3124 3122 3121 3119 3117 3116 3114 3113 3111 3108 3106 3105 3102 3100 3097 3094 3091 3089 3088 3086 3085 3082 3079 3076 3073 3072 3071 3069 3068 3067 3066 3061 3059 3058 3061 3053
3144 3143 3141 3139 3137 3135 3133 3131 3129 3127 3125 3124 3122 3120 3119 3116 3115 3113 3112 3110 3107 3106 3104 3102 3099 3094 3092 3090 3089 3088 3085 3083 3081 3079 3077 3074 3072 3070 3068 3067 3066 3063 3060 3058 3057 3054 3050
3140 3139 3138 3136 3134 3132 3131 3129 3127 3125 3124 3122 3121 3118 3116 3115 3114 3112 3111 3108 3106 3104 3103 3099 3097 3094 3092 3090 3089 3086 3083 3081 3079 3077 3076 3074 3072 3071 3070 3067 3063 3059 3058 3056 3054 3051 3047